Location: Unspecified
(47.6578°N, 23.5640°E)
Time: 02:09:29
(UTC+03:00)

ISS - Pass Details

Date: 10 January 2018
Orbit: 407 x 419 km, 51.6° (Epoch: 26 June)

Event Time Altitude Azimuth Distance (km) Brightness Sun altitude
Exits shadow 06:05:43 53° 199° (SSW) 566 -3.3 -20.6°
Drops below altitude 10° 06:09:03 10° 134° (SE) 1,589 0.0 -20.0°
Sets 06:11:13 0° 129° (SE) 2,455 1.2 -19.6°
